[Date Prev][Date Next][Thread Prev][Thread Next] - [Date Index][Thread Index][Author Index]

2 Line ISS Keps 1-29



ISS
1 25544U 98067A   04029.31797456  .00022965  00000-0  21937-3 0   942
2 25544  51.6303 317.6904 0007739 102.6882 347.6637 15.66601553296374


----
Via the sarex mailing list at AMSAT.ORG courtesy of AMSAT-NA.
To unsubscribe, send "unsubscribe sarex" to Majordomo@amsat.org



AMSAT Top AMSAT Home